Flag for U.S.A. Weather past 2 weeks in Chula Vista, California, U.S.A.

Now
65 °F

Overcast.


Feels Like: 65 °F
Forecast: 64 / 71 °F
Wind: 5 mph from West

Location: Brown Field Municipal Airport

Current Time: Jul 4, 2015 at 11:48:23 PM

Latest Report: Jul 4, 2015 at 10:53 PM


Visibility: 10 mi

Pressure: 29.94 "Hg

Humidity: 85%

Dew point: 60 °F

Location of Chula VistaLocation

Historic Weather in Chula Vista — Graph

°F

Chula Vista temperature yesterday

Maximum temperature yesterday: 78 °F (at 1:53 PM)
Minimum temperature yesterday: 65 °F (at 12:53 AM)
Average temperature yesterday: 69 °F

Past Weeks' High & Low Weather Summary

 TemperatureHumidityPressure
High86 °F (Jun 30, 4:53 PM)100% (Jun 20, 2:00 AM)30.01 "Hg (Jun 20, 2:00 AM)
Low59 °F (Jun 21, 3:03 AM)52% (Jun 22, 12:53 PM)29.80 "Hg (Jun 30, 5:53 PM)
Average69 °F80%29.91 "Hg
* Reported Jun 19 10:01 PM — Jul 4 10:53 PM, Chula Vista, Weather by CustomWeather, © 2015

Note: Actual official high and low records may vary slightly from our data, if they occured in-between our weather recording intervals... More about our weather records

Advertising

Chula Vista weather history for previous 24 hours

 ConditionsComfort  
Time TempWeatherWind HumidityBarometerVisibility
10:53 PM
Sat, Jul 4
65 °FOvercast.5 mph85%29.94 "Hg10 mi
9:53 PM65 °FOvercast.5 mph85%29.94 "Hg10 mi
8:53 PM65 °FOvercast.7 mph85%29.92 "Hg10 mi
7:53 PM65 °FOvercast.9 mph85%29.90 "Hg10 mi
6:53 PM66 °FScattered clouds.8 mph78%29.88 "Hg10 mi
5:53 PM70 °FSunny.9 mph73%29.87 "Hg10 mi
4:53 PM71 °FSunny.10 mph68%29.87 "Hg10 mi
3:53 PM72 °FSunny.10 mph66%29.88 "Hg10 mi
2:53 PM73 °FSunny.9 mph66%29.89 "Hg10 mi
1:53 PM74 °FSunny.8 mph64%29.90 "Hg10 mi
12:53 PM74 °FSunny.8 mph64%29.90 "Hg10 mi
11:53 AM72 °FPassing clouds.8 mph71%29.90 "Hg10 mi
10:53 AM70 °FPartly sunny.8 mph73%29.91 "Hg10 mi
9:53 AM68 °FOvercast.7 mph78%29.90 "Hg10 mi
8:53 AM68 °FOvercast.7 mph78%29.90 "Hg10 mi
7:53 AM67 °FOvercast.7 mph81%29.89 "Hg10 mi
6:53 AM66 °FOvercast.3 mph84%29.88 "Hg10 mi
5:53 AM66 °FOvercast.No wind84%29.87 "Hg10 mi
4:53 AM66 °FOvercast.No wind84%29.86 "Hg10 mi
3:53 AM65 °FOvercast.5 mph87%29.86 "Hg10 mi
2:53 AM65 °FLow clouds.3 mph87%29.87 "Hg10 mi
1:53 AM64 °FLow clouds.6 mph90%29.88 "Hg10 mi
12:53 AM65 °FLow clouds.No wind91%29.88 "Hg10 mi
11:53 PM
Fri, Jul 3
65 °FLow clouds.3 mph87%29.89 "Hg10 mi
Weather by CustomWeather, © 2015

See weather overviewHow to use our weather pages